[Date Prev][Date Next][Thread Prev][Thread Next] - [Date Index][Thread Index][Author Index]

MIR Keps 7-16



MIR
1 16609U 86017A   99197.19117338  .00023258  00000-0  17079-3 0 06794
2 16609 051.6570 195.3509 0005405 310.0147 050.0380 15.72994892765976

----
Via the sarex mailing list at AMSAT.ORG courtesy of AMSAT-NA.
To unsubscribe, send "unsubscribe sarex" to Majordomo@amsat.org



AMSAT Top AMSAT Home